Theta_e
308 308 308 308 308 307 307 307 307 306 307 307 307 307 307 307 307 307 307 307 308 308 309 309 309 309 309 309 308 307 306 304 304 305 309 309 305 305 305 306 310 310 310 311 311 310 307 307 307 307 310 310 309 309 307 309 309 311 317 317 314 315 315 317 319 316 314 313 315 313 314 319 323 324 324 328 331 331 333 329 331 336 338 341 341 343 345 345
308 308 308 308 307 307 307 307 307 307 307 307 307 307 307 307 307 307 308 307 308 308 309 309 309 309 309 309 308 308 308 305 306 310 312 306 306 306 304 307 310 311 311 311 311 310 307 308 307 307 312 311 308 307 308 308 308 314 317 314 317 319 314 315 318 317 314 312 315 314 313 319 323 322 322 330 332 329 333 332 337 345 343 341 342 343 344 344
308 308 307 307 307 307 308 307 307 307 307 307 307 307 307 307 307 308 308 308 308 309 309 309 310 309 308 308 308 309 308 306 314 321 314 307 309 305 305 308 309 311 312 312 311 309 307 307 306 308 312 310 309 307 309 309 309 314 314 313 318 319 315 315 315 315 315 313 313 313 313 320 320 317 322 330 330 330 334 334 342 348 344 344 343 341 343 343
307 308 308 307 307 307 308 307 307 307 307 307 307 307 307 307 308 308 308 308 308 309 309 309 309 308 308 307 308 308 307 311 320 318 312 311 309 304 307 308 309 312 313 311 309 308 306 306 307 310 312 312 311 307 309 312 310 311 311 314 319 314 314 315 315 315 315 312 311 312 314 317 315 318 326 329 329 330 331 332 339 346 343 343 343 341 342 341
307 307 307 308 308 308 308 308 308 307 307 307 307 307 307 308 308 308 308 308 309 309 309 308 308 307 306 305 307 309 309 315 315 312 312 313 308 306 309 308 310 312 313 311 307 307 306 306 310 312 312 312 311 308 310 311 309 310 311 315 317 312 311 313 314 314 314 312 311 313 314 314 316 323 327 327 333 332 328 328 331 339 342 341 342 341 340 340
307 307 307 308 308 308 308 308 308 308 308 308 308 308 308 308 308 308 308 308 309 308 308 307 306 305 304 304 309 310 311 314 313 311 314 314 308 308 309 310 313 312 312 311 307 307 308 309 312 313 311 312 311 310 311 309 307 310 312 314 314 312 311 312 313 314 313 313 313 314 313 316 323 328 323 322 329 325 323 327 331 337 339 339 340 339 340 339
307 307 308 308 308 309 309 309 309 309 309 309 309 309 309 308 308 308 308 308 308 308 307 306 305 304 304 306 311 311 312 315 313 313 315 313 310 309 311 312 313 312 311 309 306 308 312 312 313 313 312 312 311 311 311 310 308 309 311 313 313 311 312 312 312 312 311 311 313 314 312 316 328 328 319 318 320 319 322 328 332 336 337 337 338 338 338 336
307 307 308 308 309 309 308 309 309 309 309 309 309 309 309 309 309 308 307 307 306 307 307 305 304 303 306 310 313 316 318 319 313 314 315 311 311 311 311 313 311 312 311 308 306 308 312 312 312 312 311 312 310 310 310 309 310 310 310 312 311 311 313 313 312 311 310 311 312 314 313 315 322 321 319 320 318 318 323 328 332 335 335 336 336 336 335 334
307 307 308 308 308 308 309 309 309 309 309 309 310 309 309 309 309 308 307 305 305 306 306 305 305 303 308 311 313 318 319 315 311 314 314 309 311 310 310 312 311 311 309 307 306 306 310 312 313 312 312 312 309 310 311 311 313 311 310 312 311 311 312 311 311 311 311 312 311 312 314 314 313 314 318 320 318 320 324 328 332 333 334 335 334 333 333 334
307 307 307 308 308 308 308 308 308 309 309 310 310 309 309 309 309 308 307 305 305 306 305 306 305 303 309 312 312 317 315 311 310 313 312 307 308 309 309 310 309 308 306 306 306 307 311 312 313 312 311 312 310 311 311 309 312 312 311 311 311 311 310 310 311 313 311 312 314 313 314 313 310 313 317 317 319 323 324 326 329 331 333 331 331 331 329 330
307 307 307 308 307 307 307 307 308 309 309 309 309 310 310 309 309 308 307 305 304 304 305 306 304 303 309 312 313 317 314 309 311 312 310 306 307 308 308 307 307 306 306 307 306 307 310 309 310 311 311 312 311 311 311 310 311 311 310 311 313 312 311 310 310 312 312 311 315 315 314 312 311 314 315 316 321 323 323 325 327 329 330 328 329 328 326 325
307 307 307 307 306 306 307 308 308 309 309 309 310 311 311 311 310 309 307 304 303 303 305 306 303 305 309 312 314 315 311 310 311 310 308 306 307 307 307 307 307 306 307 308 307 307 309 309 309 311 312 310 311 312 310 311 310 310 310 310 314 317 313 311 311 311 311 312 314 313 312 315 315 313 313 315 322 323 322 323 325 326 326 325 327 326 324 321
307 306 306 306 306 307 308 307 307 307 308 307 308 309 311 311 310 310 307 304 303 303 305 305 305 308 310 312 314 310 309 311 311 310 310 307 307 308 307 307 307 307 308 308 309 308 309 309 309 312 312 309 312 311 311 311 310 310 310 309 314 318 314 311 313 313 310 311 312 309 314 323 324 315 311 316 323 324 322 322 322 323 323 324 326 325 323 320
306 305 305 305 306 306 306 306 306 306 306 306 306 307 309 311 310 309 308 305 304 304 305 304 306 309 310 313 312 310 311 312 312 313 311 308 307 307 307 308 308 308 308 308 309 310 310 310 309 310 309 309 310 309 312 314 314 312 309 314 316 312 314 314 314 315 312 311 312 309 314 321 322 317 311 313 323 326 324 323 321 321 321 323 325 324 323 320
304 304 304 304 305 304 304 305 305 305 305 305 306 306 307 311 311 309 307 306 304 304 305 306 307 307 311 316 312 310 313 312 314 314 313 312 308 308 309 308 309 309 310 309 309 310 310 309 308 310 310 310 311 312 315 318 318 314 309 318 320 311 313 316 314 316 312 311 313 310 314 318 315 315 311 311 322 327 324 324 322 321 321 322 324 323 323 320
302 303 303 302 302 303 303 304 305 305 304 304 305 305 307 311 311 309 307 305 304 305 307 309 309 307 312 317 313 312 314 313 315 314 315 314 310 310 309 308 309 309 309 309 310 310 309 309 310 310 311 310 314 317 318 321 326 322 316 317 316 311 312 315 313 312 312 311 312 310 313 317 314 314 311 309 318 326 324 325 323 322 321 322 323 324 324 322
301 301 301 301 302 302 303 304 304 305 303 302 303 306 310 312 311 309 306 304 303 304 306 309 308 308 311 313 312 314 314 313 314 314 315 314 312 311 308 308 308 306 309 308 307 309 309 309 310 311 316 319 321 320 316 321 327 327 327 320 314 313 314 316 315 311 313 311 311 312 312 315 315 315 315 310 313 322 325 324 323 322 321 321 323 324 323 322
299 300 300 301 301 302 303 303 305 305 303 302 303 308 312 311 309 308 306 305 305 306 308 309 309 312 314 311 312 314 313 314 314 313 313 314 314 311 309 309 307 308 312 310 309 311 310 313 317 318 325 328 326 322 320 322 321 320 328 323 316 317 314 315 317 314 315 314 312 313 311 314 316 317 319 314 312 318 324 323 320 320 319 321 323 324 323 321
299 299 300 300 301 302 303 303 304 304 303 301 304 311 314 311 310 309 308 307 308 311 313 314 314 315 314 312 312 312 313 313 313 312 312 313 312 310 309 307 309 311 311 313 314 312 312 318 320 319 323 324 321 322 322 322 319 318 324 322 318 319 317 317 318 315 314 314 313 314 314 316 316 318 319 316 316 316 318 319 317 318 319 320 322 324 322 321
299 299 299 300 301 302 302 303 303 303 303 301 304 313 318 318 318 317 314 313 313 312 312 315 315 314 314 314 312 313 315 313 311 311 310 312 310 310 309 307 311 314 315 315 314 313 315 318 318 318 321 324 324 325 321 319 321 321 322 322 318 317 319 318 317 317 314 311 314 317 320 319 317 321 321 319 321 319 315 317 317 319 320 319 322 323 322 320
298 299 299 300 300 301 302 303 303 302 302 303 307 315 319 319 320 319 317 318 315 310 311 314 313 313 313 313 313 313 316 315 314 313 310 310 310 309 310 309 310 314 318 315 314 321 322 316 320 324 324 323 325 327 323 321 323 322 320 319 318 318 319 316 314 321 318 310 314 320 322 323 324 329 328 322 320 318 317 317 316 318 319 319 320 322 322 319
298 299 299 299 300 301 302 303 303 303 304 306 307 312 316 314 313 314 314 317 317 311 312 312 310 313 313 312 313 313 315 318 320 318 311 308 310 309 310 311 311 314 318 314 315 326 324 317 320 324 323 322 325 327 326 325 326 325 321 318 321 320 318 319 320 325 322 314 319 323 319 326 333 332 332 329 327 323 320 320 319 318 318 319 318 320 322 320
299 299 299 300 301 302 303 303 303 304 305 306 307 310 313 314 313 313 312 316 317 314 315 316 315 318 318 315 313 314 318 319 320 319 312 308 310 310 310 312 312 312 313 313 315 317 317 319 321 322 322 322 324 324 323 322 324 327 323 318 322 320 316 322 325 327 323 314 318 321 318 328 336 333 332 327 325 325 320 322 324 318 316 318 317 319 321 321
299 299 299 301 302 303 304 302 304 306 307 307 310 311 313 315 315 315 315 318 319 317 316 315 317 320 321 317 314 317 321 317 317 317 310 310 310 308 310 312 312 310 310 316 319 314 312 316 320 325 324 320 320 322 320 318 320 330 329 319 322 322 317 319 322 328 328 319 319 320 319 334 338 332 332 326 322 326 322 321 324 319 317 316 314 317 320 321
300 299 301 302 303 304 304 304 306 308 309 309 311 313 313 315 316 315 320 324 325 326 320 312 315 318 316 315 314 316 317 314 316 314 308 309 310 308 309 310 310 311 311 314 315 313 312 313 316 321 323 321 320 323 325 323 322 331 334 326 326 328 321 319 323 329 329 325 321 314 317 339 341 330 332 330 325 327 322 319 321 319 319 318 315 317 319 320
300 299 302 303 304 306 307 307 308 310 311 311 311 313 313 315 316 315 323 329 329 326 321 313 313 315 312 312 312 313 315 315 314 310 308 308 309 310 310 309 309 310 312 313 314 314 315 314 316 319 325 324 320 322 326 325 322 324 328 328 328 329 324 322 322 322 325 322 317 315 318 332 337 333 332 327 323 324 321 320 321 317 318 321 318 315 316 319
301 301 302 303 304 308 311 311 311 311 312 312 312 313 313 316 316 314 323 331 326 318 317 314 312 312 312 311 311 313 315 316 312 308 309 308 309 309 310 313 310 308 311 312 314 316 316 317 319 323 329 326 321 326 326 322 322 324 325 325 326 328 326 327 324 321 326 320 319 326 323 319 329 331 324 321 319 322 321 322 323 318 315 318 317 314 313 315
302 302 302 304 304 306 311 313 311 311 312 312 312 313 314 316 316 320 328 328 320 315 314 313 310 310 312 310 310 313 313 313 312 310 308 308 309 309 310 313 312 311 311 309 314 318 315 313 315 321 327 323 325 333 327 319 321 325 323 321 322 324 327 330 326 323 324 317 319 332 321 313 329 329 320 318 316 320 323 321 323 320 315 312 313 315 313 312
303 302 303 304 304 305 308 309 310 312 313 312 313 314 316 316 318 323 327 321 315 314 313 311 312 311 312 311 311 312 311 311 312 311 309 307 308 309 309 311 313 311 309 309 315 318 312 311 314 318 321 324 332 333 323 319 320 319 317 315 316 319 322 326 325 323 325 318 318 330 320 312 324 330 326 320 312 318 323 318 317 315 312 311 310 312 312 311
304 304 304 304 305 307 307 307 310 312 313 312 314 315 316 320 326 326 320 316 313 314 311 310 311 310 311 312 312 312 311 311 313 311 310 309 310 310 306 308 313 312 316 318 316 314 311 312 317 317 318 324 328 320 313 316 315 312 317 317 315 320 323 325 327 323 319 319 322 328 321 311 317 329 331 321 313 316 317 315 314 312 311 311 310 310 310 309
306 305 305 305 307 309 309 308 309 311 312 314 315 316 318 323 332 330 318 313 314 314 311 309 311 311 310 311 312 312 310 312 313 311 312 311 311 311 307 309 314 317 329 329 316 313 312 310 316 319 317 317 317 312 309 311 313 314 323 322 315 320 321 321 326 320 315 321 324 322 317 311 314 323 322 317 314 313 313 312 312 313 312 311 311 312 311 310
307 307 306 308 310 311 310 310 311 312 313 314 315 321 329 326 325 326 320 314 315 315 311 308 309 309 309 311 311 309 309 311 312 311 312 311 311 313 310 313 317 316 324 325 315 317 318 314 314 314 315 314 313 316 310 309 315 317 321 321 316 317 318 319 321 318 318 321 317 315 314 311 316 321 314 313 314 312 312 313 311 312 311 310 311 312 312 311
308 310 311 312 314 314 314 314 313 314 314 315 317 326 334 328 320 321 323 319 313 312 309 307 308 308 309 312 310 308 309 310 310 310 310 309 311 315 313 313 313 311 315 315 313 318 323 322 315 310 313 314 314 319 315 313 316 314 317 321 319 317 317 320 319 314 316 319 315 314 315 315 321 319 313 313 313 313 315 314 313 313 310 308 309 310 312 313
308 314 315 316 317 317 318 316 315 316 316 315 319 322 323 323 320 319 322 319 312 310 308 306 309 309 309 311 309 308 310 310 308 310 312 310 311 316 316 311 307 312 318 315 314 318 318 320 318 312 311 311 312 316 318 321 316 311 315 316 317 321 320 319 319 315 315 317 314 311 313 322 323 313 312 315 314 314 314 312 312 312 309 307 306 307 310 313
309 312 315 316 316 317 318 315 315 318 315 319 328 324 319 322 322 318 318 317 313 310 308 308 311 312 312 313 311 308 309 309 309 312 314 312 311 314 314 310 308 313 318 315 316 315 310 314 319 314 310 309 310 311 311 317 314 309 311 311 314 321 322 317 314 316 317 316 316 313 316 326 321 311 315 318 315 313 312 310 309 309 307 306 306 307 307 309
311 312 314 315 316 317 316 314 316 316 316 327 333 324 322 324 318 315 315 312 309 308 310 313 315 314 313 315 315 311 308 308 310 314 315 311 310 311 310 311 310 310 312 314 318 315 310 316 321 313 310 310 309 309 308 311 315 311 309 313 314 314 320 318 310 313 316 315 317 316 316 321 316 313 318 318 314 312 311 310 309 308 307 306 306 307 307 307
314 314 315 317 317 316 314 314 317 315 321 333 330 320 324 322 312 313 313 308 307 309 312 314 312 310 310 312 317 315 309 309 309 310 313 312 310 311 311 312 310 310 311 309 314 315 311 318 323 314 310 311 308 309 310 309 313 315 312 315 313 309 318 322 315 317 317 316 321 319 315 318 318 317 319 316 312 311 312 311 308 308 307 306 307 306 306 307
315 316 317 316 313 312 313 314 314 318 330 337 329 323 322 315 308 310 309 306 308 310 313 312 309 308 308 310 315 314 309 310 311 309 313 314 310 309 312 312 309 312 311 307 310 313 309 315 324 315 309 312 311 310 313 311 310 314 315 313 313 315 321 320 317 320 315 313 323 322 314 315 319 320 317 311 310 311 312 311 309 308 308 308 308 306 306 307
315 320 320 313 309 311 312 311 315 326 335 333 330 326 318 313 311 309 307 307 309 311 311 311 308 308 310 310 313 312 308 309 310 308 310 311 309 308 309 310 310 311 311 309 310 313 310 312 320 318 309 309 313 313 316 317 311 312 315 313 315 321 322 317 316 319 316 315 321 320 313 315 320 321 316 310 311 311 310 310 310 309 309 308 308 307 307 307
314 323 323 310 307 310 309 311 323 333 328 321 326 326 314 310 311 308 307 307 309 310 310 310 309 308 310 310 309 309 308 309 309 307 309 309 307 307 308 309 308 310 313 315 316 316 313 309 316 324 315 310 315 315 316 319 315 314 317 315 314 313 312 313 313 313 314 319 321 319 316 319 321 320 317 311 311 310 309 310 310 309 308 307 307 307 307 307
311 321 322 311 306 308 310 315 324 327 323 316 318 317 310 309 310 308 309 308 308 308 309 311 312 311 313 311 309 308 308 309 309 307 308 308 305 306 308 307 307 308 313 319 318 316 314 312 317 324 318 315 319 314 310 313 314 316 319 316 315 314 313 314 313 312 313 315 318 318 318 321 321 319 318 315 313 312 310 309 309 308 307 307 307 306 306 306
312 315 315 310 306 307 312 318 316 315 319 314 309 308 309 311 308 306 307 307 308 308 309 311 311 312 314 311 309 309 308 309 309 307 308 307 306 308 307 307 308 309 312 315 313 314 317 317 317 318 317 316 315 309 305 307 310 313 314 312 313 318 321 320 318 318 316 311 312 315 318 323 322 320 319 317 315 312 308 307 308 307 307 307 307 307 306 306
316 313 312 309 306 308 312 316 316 315 317 314 307 306 307 308 307 306 307 307 308 308 310 310 308 309 310 307 307 307 306 308 308 308 308 305 305 308 308 308 311 312 314 315 313 314 317 316 313 317 322 318 312 308 307 307 310 310 309 309 309 312 319 322 322 320 316 314 316 315 316 321 323 321 318 312 310 308 306 306 307 308 308 308 307 308 308 307
315 314 316 309 304 310 313 313 316 317 317 316 313 310 308 306 306 308 307 307 308 308 310 310 307 306 306 305 307 306 305 307 307 306 306 305 306 309 309 309 311 314 316 316 314 312 313 317 317 316 319 318 315 313 312 313 313 311 309 307 307 310 313 315 316 314 312 314 316 316 318 321 319 317 316 311 308 308 306 306 307 308 307 307 307 308 307 307
311 311 316 311 305 309 314 314 317 318 315 314 314 312 310 309 308 308 306 306 307 306 308 308 306 307 308 307 309 310 307 306 305 306 309 310 311 310 309 309 310 314 317 316 314 311 310 317 318 314 316 315 314 315 318 319 313 308 309 306 306 312 312 310 312 311 312 314 313 316 320 319 313 312 313 314 311 309 307 308 308 307 307 307 307 307 307 306
311 309 316 318 311 309 310 310 313 316 313 312 312 310 309 310 310 308 306 305 305 305 306 306 306 309 309 309 311 313 310 307 306 310 315 316 313 310 309 309 310 312 313 313 316 316 312 312 314 314 315 314 312 313 315 315 311 308 309 306 307 312 312 311 311 311 314 316 313 315 317 312 309 310 311 315 313 310 309 310 309 309 309 308 307 307 307 307
311 308 310 314 312 313 315 312 311 312 310 309 309 308 309 311 311 309 307 305 305 306 307 305 305 307 308 309 311 310 309 310 309 310 312 312 312 311 308 308 309 311 310 310 316 319 313 311 312 313 314 312 310 311 309 308 310 310 310 308 309 312 311 310 311 311 313 311 309 315 315 309 310 312 312 314 313 311 310 310 309 309 309 308 307 307 308 308
306 306 305 304 304 309 312 310 309 311 310 309 310 308 308 310 311 309 308 307 307 307 306 306 305 305 305 307 309 308 310 310 308 309 308 306 309 312 309 307 306 307 307 308 314 316 312 312 310 308 312 313 309 309 307 307 309 309 310 310 310 312 311 308 311 313 312 308 308 314 316 313 314 315 313 313 313 312 311 309 308 308 309 308 308 309 310 310
306 308 306 303 304 307 308 307 307 310 311 312 312 308 305 307 308 305 304 306 308 307 305 306 306 305 305 308 311 311 310 308 305 307 308 305 306 309 308 308 307 305 304 306 311 312 310 314 313 308 309 312 311 310 308 307 309 308 309 310 309 309 309 308 310 312 310 309 308 310 311 312 313 315 315 312 311 311 310 309 309 309 309 310 310 311 312 313
304 306 305 306 309 310 309 309 309 312 312 310 310 307 304 305 305 304 303 304 305 306 305 306 306 304 305 311 314 310 310 311 306 304 306 305 306 308 307 306 307 307 305 304 308 309 308 312 313 309 308 309 311 312 310 308 310 309 307 309 306 306 307 305 306 308 308 308 308 306 307 309 309 312 313 310 309 310 310 311 312 310 309 311 312 313 314 314
299 299 300 305 310 308 308 309 308 311 311 308 308 308 305 304 302 303 304 303 302 304 304 304 305 305 305 308 309 305 307 312 310 307 309 307 306 308 307 305 305 305 305 306 307 308 307 310 311 309 307 308 309 311 309 309 309 307 307 308 306 307 309 308 307 308 308 308 308 305 305 308 308 308 309 310 310 311 311 313 314 311 309 311 313 314 313 313
297 299 298 300 304 304 306 307 306 308 307 304 305 306 305 304 302 302 303 303 301 301 301 303 305 304 304 305 304 301 302 306 310 309 308 305 304 305 305 305 303 302 305 307 307 307 308 308 310 310 307 305 308 310 309 309 309 308 309 310 308 308 309 308 308 308 308 307 307 306 306 308 308 307 309 310 310 311 314 314 314 311 310 310 312 312 312 312
Wind_Speed
10 9 9 9 9 9 9 9 9 8 8 9 9 9 9 9 9 9 9 8 8 9 9 10 10 10 11 12 13 14 17 17 17 12 7 11 10 7 6 6 9 7 5 4 2 0 3 3 3 3 3 2 2 1 1 0 2 3 3 3 1 3 3 5 6 5 3 5 7 7 6 2 2 2 1 5 8 8 6 5 3 4 5 8 12 21 26 22
10 9 9 9 9 9 9 9 8 8 8 9 9 9 9 9 9 8 8 8 8 9 9 9 10 10 11 12 13 15 17 17 15 12 11 11 10 9 8 10 9 6 5 3 2 1 4 2 2 4 5 2 2 1 1 0 1 3 3 2 3 5 4 5 5 4 3 5 8 7 6 1 2 1 0 5 6 6 7 4 4 7 7 11 15 22 24 22
10 10 9 9 9 9 9 9 9 9 9 9 9 9 9 9 8 8 8 8 8 9 9 9 10 11 11 12 12 14 15 12 8 7 5 5 7 11 11 13 10 5 4 1 1 2 3 1 1 5 5 2 1 1 1 1 1 2 3 1 5 6 5 5 5 6 6 6 8 8 6 1 3 1 1 6 7 5 7 4 4 6 7 10 12 17 21 21
10 10 9 9 9 9 9 9 9 9 9 9 9 9 9 9 8 9 9 8 8 9 9 9 10 11 11 12 12 13 10 5 2 2 2 5 2 12 16 14 9 5 5 3 3 2 2 3 4 5 4 2 3 2 0 2 2 1 3 4 6 4 3 6 6 7 8 5 6 7 5 1 1 1 3 9 8 1 5 7 7 11 13 13 11 13 17 18
10 10 9 9 9 9 9 9 9 9 9 9 9 9 9 9 9 9 9 8 8 8 9 9 9 10 11 12 12 10 5 3 2 3 5 5 3 15 17 12 9 4 5 5 3 2 2 4 5 5 4 1 2 2 2 3 3 1 3 6 6 4 3 7 4 6 6 3 5 5 1 3 1 2 6 10 9 4 5 6 7 13 17 17 15 13 14 13
10 10 9 9 9 9 9 9 9 9 9 9 9 9 9 9 9 9 8 8 7 8 8 8 9 10 12 11 9 5 1 1 4 4 6 4 6 15 15 11 8 4 5 6 2 2 2 5 5 3 3 1 1 1 4 3 2 2 4 4 5 5 5 6 2 5 3 3 4 4 3 1 5 3 4 5 6 3 3 3 7 11 16 19 17 15 14 13
10 10 9 9 9 9 10 10 10 10 10 10 10 10 9 9 9 8 8 7 6 7 8 8 9 10 12 10 5 2 1 3 5 5 6 2 8 15 14 10 7 5 6 5 2 2 3 5 4 3 3 1 2 4 4 2 1 3 3 5 5 5 7 7 5 5 3 4 7 3 5 1 7 4 2 4 5 5 3 6 9 8 11 15 15 13 13 13
10 10 10 10 10 10 10 10 10 10 10 10 10 9 9 9 9 8 7 6 5 6 7 7 7 8 11 9 2 2 1 4 5 5 3 2 7 14 14 10 7 6 7 5 4 4 3 5 3 3 2 1 3 3 3 1 1 3 5 5 4 4 7 8 7 7 5 7 6 1 5 3 6 4 5 5 7 3 3 9 10 9 10 11 12 12 11 11
11 11 10 10 10 10 10 10 10 10 10 10 9 9 9 9 9 8 7 6 5 6 6 6 7 7 8 6 1 2 1 3 7 5 2 4 6 12 13 9 9 8 7 7 7 7 4 4 4 3 2 2 3 2 2 1 2 5 5 4 5 6 7 7 8 7 5 5 3 3 3 3 2 1 5 4 4 2 8 11 11 12 12 10 10 10 11 11
11 10 10 10 10 10 10 10 10 9 9 9 9 9 9 9 8 7 6 5 5 5 5 5 6 6 6 3 3 3 1 5 8 4 4 4 6 12 11 8 10 9 8 8 9 9 5 5 4 3 3 1 2 3 2 3 3 5 4 5 7 8 7 4 6 5 2 3 4 6 4 2 3 1 3 4 1 7 10 11 10 12 12 11 9 8 8 9
11 11 10 11 10 10 10 10 9 9 9 9 9 9 8 8 7 6 5 4 4 4 4 4 5 6 4 3 4 1 2 6 8 5 3 4 6 9 10 9 10 12 11 8 10 12 7 6 4 3 1 1 2 3 3 4 2 3 2 6 8 7 5 3 4 5 1 1 4 7 3 2 4 1 4 5 3 8 11 11 10 11 10 9 9 8 6 7
11 11 11 10 10 9 9 9 9 9 9 9 9 9 8 7 6 5 4 3 4 3 3 3 4 5 4 2 3 4 3 6 6 4 2 4 5 6 7 8 10 12 13 7 9 14 10 6 4 2 2 1 0 1 2 3 1 1 1 3 9 7 5 4 4 4 1 0 2 5 0 5 4 2 4 3 4 7 10 11 9 10 8 8 9 7 6 7
12 11 10 10 10 10 9 9 10 10 10 10 10 9 8 7 5 4 3 3 2 2 3 3 4 4 3 1 4 2 3 5 6 3 3 5 5 5 6 8 8 9 11 8 6 8 9 9 5 3 3 1 2 2 1 2 1 3 3 1 6 6 6 6 3 4 2 0 2 2 2 5 6 6 6 1 6 9 9 8 8 8 7 7 8 7 6 7
11 11 10 10 10 10 10 10 10 10 10 10 10 9 8 7 5 4 3 2 2 2 3 2 4 3 2 4 4 2 3 6 7 7 6 7 7 6 6 8 9 10 11 13 9 3 5 8 5 1 2 3 3 3 3 6 4 3 2 2 3 2 3 7 3 4 3 1 6 5 2 6 7 8 6 2 7 10 10 8 7 7 7 8 8 7 7 6
11 10 10 10 10 11 11 10 10 9 9 10 10 9 8 6 4 4 2 3 3 2 1 2 3 2 2 4 4 3 5 5 7 9 7 9 8 5 4 6 9 11 12 14 12 5 1 4 4 1 3 1 2 3 3 5 4 3 2 2 4 2 3 8 4 4 2 3 5 6 1 6 6 7 6 3 6 9 9 9 8 8 9 9 8 7 6 5
11 10 10 10 10 11 11 11 10 9 9 10 11 10 7 5 3 3 3 2 2 2 2 2 1 1 1 3 3 4 3 3 6 7 7 10 9 6 2 2 4 6 10 12 11 9 4 4 3 1 1 2 4 4 3 5 4 4 3 0 2 3 3 4 4 5 2 3 4 3 2 5 4 6 6 1 4 7 8 8 8 8 9 9 8 6 6 5
10 9 9 9 10 10 10 11 11 10 9 10 11 9 6 3 2 2 2 2 2 3 2 1 1 2 1 4 4 4 3 4 8 7 8 10 10 9 2 1 0 1 4 6 5 4 3 2 1 1 2 4 3 4 3 3 3 4 3 2 2 1 1 2 3 4 4 1 3 2 2 6 5 6 7 5 2 6 7 8 8 8 7 7 7 6 6 7
9 9 9 9 9 9 10 10 10 11 10 10 10 6 3 2 2 1 2 3 3 1 1 1 1 2 2 3 3 4 8 10 10 6 7 8 10 10 4 1 2 5 5 2 1 1 1 1 2 2 3 4 3 5 2 4 2 2 1 2 1 2 0 2 3 2 6 3 2 3 4 8 7 7 6 6 1 5 8 6 6 6 6 5 5 6 6 7
9 9 8 8 8 8 9 9 10 12 11 10 9 3 3 3 3 2 2 3 2 1 1 2 0 1 2 3 4 8 12 11 7 4 5 6 7 6 2 1 3 5 4 3 3 2 2 3 4 2 2 4 1 4 6 7 6 6 4 4 3 1 2 4 4 4 3 4 2 1 5 7 6 6 6 5 3 3 7 3 5 5 5 5 5 6 6 8
9 8 8 7 7 7 8 9 10 11 11 10 5 2 2 3 3 3 1 1 3 4 4 4 4 1 4 5 5 9 10 5 1 1 3 4 6 5 1 3 4 5 3 0 3 3 4 3 1 3 5 6 6 5 5 4 5 6 5 4 4 2 2 5 4 5 2 3 1 1 4 6 6 7 6 4 3 2 6 5 5 6 5 6 6 7 8 8
9 7 7 6 6 6 7 8 9 9 10 9 4 3 2 1 2 3 3 3 6 8 7 7 5 4 7 7 5 5 4 3 3 2 3 5 6 5 1 3 4 3 2 2 2 3 5 2 4 8 9 7 5 4 5 4 5 5 5 5 1 2 2 4 3 4 4 1 3 2 3 6 7 7 5 3 2 3 7 8 7 8 7 6 7 8 8 6
8 7 6 5 5 5 6 7 8 8 7 7 4 2 2 0 2 4 2 3 6 7 7 6 3 6 9 9 9 2 3 2 6 6 3 6 3 2 1 4 5 2 3 1 2 5 5 2 8 8 6 4 4 5 6 5 4 4 3 3 0 2 3 5 3 5 4 1 3 3 4 6 7 7 7 3 4 5 6 7 8 9 9 8 9 9 7 7
8 6 5 4 4 4 5 6 6 6 5 5 3 2 1 6 7 4 2 1 6 3 3 3 3 4 5 6 6 5 4 2 3 6 5 8 1 2 4 4 4 2 2 2 2 1 2 5 7 3 6 6 4 3 6 4 2 3 3 3 2 2 1 3 4 6 4 2 1 2 3 6 6 6 6 5 3 3 4 6 6 6 9 10 10 9 9 10
7 5 4 4 4 3 4 6 4 5 5 2 2 5 7 11 11 4 1 0 4 4 3 5 4 4 3 2 6 8 3 4 3 4 6 9 3 2 4 3 4 1 2 3 6 4 5 7 4 5 5 5 3 2 5 5 1 2 2 4 2 2 3 4 4 5 4 4 3 4 4 5 5 5 6 5 4 3 1 2 4 4 6 6 5 7 10 11
6 4 4 4 3 3 5 4 3 6 6 1 2 8 11 14 14 4 1 2 2 5 3 3 1 3 3 2 6 6 1 2 4 4 5 9 6 3 1 2 3 1 4 4 5 3 6 5 3 5 2 3 5 2 3 7 2 4 3 6 6 5 4 3 2 5 5 4 4 4 2 5 5 4 6 4 6 6 4 3 3 5 5 5 5 7 9 10
6 4 3 3 3 4 5 2 3 8 4 1 5 10 11 15 13 1 3 4 2 4 3 1 0 1 1 2 4 2 4 2 6 3 4 7 6 4 1 1 2 1 4 4 3 2 4 3 3 4 3 4 3 3 5 7 5 2 4 6 6 6 5 3 2 3 2 3 3 3 2 4 6 5 6 4 6 8 7 6 6 5 5 6 7 7 8 9
6 3 3 3 2 3 3 1 4 5 1 2 8 11 13 15 8 2 2 5 2 2 1 1 1 1 1 1 2 3 2 5 3 1 2 6 3 3 1 2 1 1 3 3 1 2 3 2 5 4 5 5 2 3 5 7 7 2 5 7 8 6 5 5 5 4 1 3 3 5 3 2 4 5 5 5 6 8 8 8 9 6 4 6 7 7 8 10
6 4 3 2 2 3 2 2 4 2 1 5 9 12 16 11 1 3 4 3 2 2 0 2 2 1 2 1 2 3 2 3 1 2 2 4 3 3 1 4 4 4 1 4 3 5 2 2 3 2 5 3 3 5 7 9 5 5 5 7 6 6 5 5 6 3 1 1 3 5 2 1 4 6 5 5 3 6 8 8 9 8 7 4 6 8 9 11
5 4 3 2 3 3 3 4 4 1 3 8 11 15 14 4 3 3 5 2 2 2 1 1 1 2 3 2 2 2 2 1 2 3 3 4 1 3 2 4 6 4 1 4 5 6 3 5 4 4 4 3 6 4 7 9 3 4 6 7 5 6 5 5 5 3 3 3 3 6 1 1 4 6 5 4 3 5 7 7 7 7 9 9 8 9 9 10
5 4 3 3 4 4 5 6 3 2 6 9 13 14 7 3 4 5 3 1 1 2 1 1 1 2 3 3 4 4 1 2 2 3 2 2 3 5 3 2 6 5 1 3 2 6 4 3 2 3 3 5 4 2 3 4 3 3 6 6 6 6 5 4 3 4 4 2 6 7 2 2 2 5 3 1 1 3 6 7 7 7 8 9 9 8 9 8
6 4 3 3 4 4 4 4 3 4 7 11 14 9 2 2 4 5 1 2 1 2 3 2 2 3 4 1 2 4 1 3 4 3 2 1 4 5 2 0 3 3 3 5 3 5 6 3 2 3 3 4 5 4 2 3 4 4 4 5 4 3 4 4 4 3 3 3 6 4 1 4 1 4 3 4 5 4 4 6 8 9 9 9 7 6 7 7
6 3 3 4 5 5 4 4 5 6 9 12 11 4 4 1 2 2 2 3 1 2 2 2 3 4 4 1 2 4 2 3 4 2 0 1 1 1 1 3 2 2 3 2 2 6 5 4 4 5 3 3 6 3 3 5 5 5 4 5 3 2 3 2 3 1 2 5 3 2 1 1 4 5 4 7 7 6 4 5 7 8 9 9 6 5 5 4
5 3 3 4 6 8 6 5 6 7 10 12 7 4 6 3 1 2 2 2 1 2 0 1 2 3 4 4 4 5 3 1 3 2 0 0 0 3 3 1 3 2 2 3 1 4 4 5 5 3 3 1 6 4 1 1 1 4 4 4 3 2 2 1 3 1 2 4 3 2 1 1 3 3 3 6 7 6 6 6 6 7 9 8 6 6 6 5
4 2 4 6 8 9 7 6 6 8 10 8 4 4 4 2 2 2 1 2 2 2 2 1 3 4 5 4 2 4 3 1 3 4 2 3 3 4 4 3 1 3 2 1 1 0 0 5 4 2 2 1 3 5 5 5 3 3 4 5 4 4 4 3 3 3 3 2 2 2 1 2 2 2 4 5 6 5 5 6 6 6 8 6 7 9 8 7
5 4 5 8 8 7 5 4 6 7 6 4 6 4 2 3 3 1 2 3 1 2 3 2 4 4 4 3 3 3 2 1 4 5 3 3 1 1 1 3 3 3 4 1 2 1 1 5 6 4 2 0 1 2 5 6 2 1 3 5 2 4 5 2 3 4 3 1 0 2 2 3 2 3 5 4 5 6 5 5 5 6 7 7 10 10 9 8
5 5 6 7 6 4 3 4 6 5 2 5 6 3 2 4 2 2 2 1 1 0 2 4 4 4 3 4 3 4 2 1 3 4 3 2 0 1 0 2 2 2 4 3 3 1 0 4 6 4 3 1 1 1 3 3 2 1 2 3 4 4 7 4 1 1 3 2 2 1 2 3 2 1 4 5 5 6 5 6 7 7 8 10 10 9 9 9
5 5 3 3 4 2 3 5 5 4 2 6 5 1 3 2 2 3 1 2 0 2 4 3 2 2 1 2 2 4 3 2 3 3 2 2 1 2 2 2 2 1 2 3 3 2 2 4 6 1 0 3 2 2 3 2 4 4 3 5 3 3 5 4 2 3 4 2 4 1 2 2 0 1 3 5 5 6 7 7 7 7 8 9 8 8 8 8
7 3 1 4 4 2 2 3 3 0 4 5 2 2 1 1 1 1 1 2 0 4 5 1 1 1 2 0 3 4 2 2 3 2 2 1 1 2 4 2 2 3 2 2 1 0 2 2 7 2 1 5 5 4 3 5 3 4 4 3 3 3 1 1 2 1 1 2 3 3 2 2 3 4 2 1 1 5 7 6 7 8 8 7 7 8 8 8
6 2 1 6 6 3 2 2 2 3 5 3 0 1 1 1 2 1 1 1 1 3 2 2 1 1 1 2 2 3 2 0 0 2 1 0 1 3 4 2 4 5 4 3 3 1 1 1 5 4 1 4 5 3 1 3 3 3 3 3 2 3 3 2 2 3 3 2 2 3 3 2 4 5 4 5 3 3 5 6 7 7 7 6 5 6 7 7
4 2 1 6 9 3 3 1 1 5 4 2 3 2 1 1 3 3 3 2 1 1 0 2 1 1 1 2 2 1 1 1 2 1 1 1 1 2 4 3 3 6 6 2 3 1 2 2 3 5 4 1 1 1 3 4 1 1 2 1 1 2 2 1 1 2 3 3 3 1 2 4 5 4 5 5 4 2 2 5 6 6 7 7 6 6 6 6
3 3 2 8 13 3 3 3 3 3 2 1 1 2 2 1 1 5 5 2 1 1 1 3 4 2 2 2 1 2 0 1 1 1 1 1 0 0 3 3 3 4 5 5 4 1 1 2 2 3 4 1 4 4 2 4 4 3 2 3 3 3 3 1 1 1 1 3 4 4 2 6 4 3 4 4 3 1 2 3 4 5 6 6 6 6 6 5
3 2 3 11 16 4 4 4 1 2 3 2 1 1 2 2 1 3 4 3 3 1 2 2 3 2 3 2 2 3 2 0 1 1 1 1 2 1 2 4 4 3 1 2 2 1 1 3 1 3 4 4 6 3 1 2 2 4 2 1 3 3 4 4 3 3 1 1 2 4 2 5 5 3 3 4 3 2 3 3 3 4 4 5 6 5 5 5
2 2 4 14 16 3 5 3 2 3 1 2 1 1 1 1 0 1 3 3 2 2 2 1 1 1 1 1 1 3 2 1 2 2 2 2 2 2 3 7 5 1 3 2 2 1 1 2 1 3 4 4 5 3 3 3 4 4 1 2 3 2 3 5 4 3 3 3 2 2 2 5 5 3 2 4 3 1 3 3 3 4 4 4 5 5 5 5
0 4 4 13 15 3 5 1 2 0 2 3 3 3 2 0 1 1 1 2 2 1 1 1 1 1 0 1 2 2 1 1 1 0 0 2 1 2 4 8 6 4 3 1 1 1 1 0 1 2 4 5 6 5 4 5 3 2 1 2 1 3 5 3 2 3 1 3 4 4 4 5 4 3 4 4 2 3 5 3 3 3 3 4 4 5 5 6
2 1 3 10 14 8 4 3 4 3 1 2 3 3 3 2 1 0 1 1 2 1 2 1 1 1 1 2 3 3 2 1 0 1 2 1 2 3 5 8 6 3 2 2 2 0 2 1 2 2 2 3 3 3 3 2 0 0 1 3 0 4 5 2 1 3 1 3 3 4 4 4 4 5 5 5 3 2 3 3 4 3 1 4 4 4 4 5
2 2 3 6 9 7 2 0 4 3 1 2 1 2 1 2 4 2 1 1 2 2 3 1 2 2 3 3 3 3 3 2 1 2 2 2 3 2 4 5 4 4 4 7 7 2 2 0 2 5 6 6 6 6 4 2 1 2 2 3 2 2 4 4 4 3 4 3 2 5 4 2 4 6 6 5 3 3 3 1 1 1 1 3 4 4 4 4
2 1 2 2 4 4 3 4 4 3 0 2 1 1 1 2 4 3 2 1 1 2 3 2 3 2 1 2 3 0 1 2 2 2 1 1 3 3 4 2 3 6 6 6 6 3 4 2 2 4 5 6 6 6 3 1 2 5 5 5 6 2 4 5 4 4 4 3 4 7 6 4 6 7 7 6 5 4 4 3 2 2 2 1 2 4 5 5
3 1 1 1 1 1 2 3 3 3 3 1 1 1 2 3 3 2 2 3 3 3 2 2 4 3 0 2 3 1 0 1 2 0 0 1 2 4 5 2 1 5 4 3 4 3 4 2 3 2 4 5 4 5 2 0 3 4 4 7 8 6 7 8 8 6 7 6 8 7 8 7 7 6 7 8 6 5 5 5 3 2 2 1 2 3 4 5
2 2 2 2 1 1 1 3 2 3 4 3 2 2 3 3 3 2 2 2 4 4 2 2 3 4 2 2 4 2 1 2 1 2 2 0 1 2 3 2 2 3 5 4 3 2 3 2 3 3 3 6 5 5 3 3 3 4 5 7 6 6 8 9 8 6 7 8 8 5 8 9 7 7 8 7 5 5 4 4 3 3 2 2 2 3 4 5
2 1 3 3 3 1 2 3 3 3 3 4 2 2 2 2 3 3 2 1 2 4 3 3 3 4 3 4 4 1 4 5 2 2 4 2 2 1 1 2 3 4 6 3 1 1 1 2 2 1 3 6 5 4 4 5 5 5 8 6 3 4 6 5 4 3 4 7 8 5 6 8 7 6 6 3 1 1 2 4 4 3 3 2 2 3 4 5
3 2 1 2 2 4 3 3 3 3 3 3 1 1 2 2 2 3 3 1 3 1 3 1 2 1 3 4 3 3 5 5 5 4 6 5 2 3 2 2 3 2 4 1 1 1 1 1 1 1 3 5 3 4 7 5 4 8 8 6 5 6 6 5 5 5 6 6 6 4 5 7 6 5 4 3 1 1 3 5 4 4 4 4 4 4 4 5
7 2 3 2 0 3 3 2 3 3 1 2 2 2 2 3 4 1 1 1 4 4 3 1 2 2 2 4 3 4 7 5 6 6 6 5 2 3 4 3 3 2 1 1 1 1 2 2 0 2 3 3 3 6 7 4 5 9 7 8 11 11 9 7 5 6 7 6 5 6 7 6 5 6 7 6 4 4 5 5 4 4 4 5 5 5 5 5
Wind_Direction
331 331 327 326 325 323 321 316 314 316 319 318 319 317 317 318 315 314 313 312 311 309 310 312 315 317 319 321 322 322 322 320 316 314 271 260 270 255 245 210 188 190 212 242 248 283 32 59 57 45 101 97 14 9 12 40 112 69 87 106 193 199 194 197 194 205 209 280 292 322 337 70 23 330 93 60 78 102 89 48 40 25 40 102 120 132 139 147
335 335 332 331 328 323 321 315 313 315 315 314 315 313 313 314 313 316 314 312 311 308 309 311 318 320 319 321 323 323 322 320 312 293 267 268 268 249 215 188 186 191 207 234 241 156 70 38 352 46 65 55 336 356 40 311 127 112 116 129 222 206 211 205 196 229 218 272 293 308 302 194 123 260 23 101 121 113 96 53 48 65 70 98 117 129 136 144
339 340 338 334 328 324 322 318 318 315 313 312 312 313 314 313 313 314 312 311 309 311 312 314 319 318 319 321 321 322 318 319 311 275 281 319 261 227 192 183 187 194 207 189 176 153 100 86 44 68 60 43 333 359 40 357 188 162 132 184 244 218 237 238 212 238 238 269 293 301 299 148 134 266 25 124 129 116 131 140 112 121 131 125 128 132 137 144
342 341 340 335 329 326 325 323 321 317 314 313 312 312 310 311 311 309 310 308 309 314 314 316 318 318 322 322 321 318 316 327 307 263 339 358 245 181 173 183 186 191 201 138 101 114 87 67 64 69 72 38 328 359 333 259 198 165 150 200 238 205 249 254 215 242 258 257 266 292 315 110 131 21 122 132 123 112 206 199 176 160 155 143 142 141 143 148
341 340 340 336 333 331 327 325 321 317 315 312 310 309 308 308 307 306 307 306 309 314 315 317 318 322 325 325 325 315 326 45 272 296 3 10 156 166 168 178 175 168 167 143 117 101 63 56 61 54 60 50 340 24 246 243 140 167 223 209 224 180 244 265 208 227 254 267 278 298 309 159 49 83 149 151 150 195 231 220 192 160 155 153 151 149 150 154
341 340 341 338 336 333 327 325 321 318 314 311 309 307 308 306 304 305 303 304 305 308 314 320 325 331 332 330 326 313 24 25 283 317 354 29 149 167 168 172 167 150 152 149 115 72 70 60 59 61 60 38 204 197 249 267 126 205 272 250 240 208 234 269 203 208 236 337 291 277 280 127 83 122 186 188 182 242 300 167 162 161 157 152 149 153 157 160
340 338 339 335 333 330 328 327 322 319 314 311 308 306 306 304 302 300 298 298 294 306 317 322 335 339 339 339 317 324 51 267 289 342 343 46 157 173 171 170 167 165 163 150 106 94 91 78 79 123 101 22 210 215 246 276 140 182 260 279 261 218 227 257 257 248 251 275 266 279 308 188 133 155 189 250 256 290 316 117 126 143 145 144 147 155 158 161
337 335 334 333 331 330 329 327 323 320 316 312 309 306 304 301 299 298 300 294 290 314 318 321 344 346 345 349 321 355 7 263 319 350 338 98 159 177 175 172 181 188 167 169 178 163 129 108 138 146 97 275 184 210 248 285 2 194 224 269 274 225 237 262 272 270 249 247 255 310 309 245 183 171 159 233 283 316 113 112 115 127 135 145 151 153 155 158
337 334 333 333 330 327 327 326 325 323 321 317 312 306 301 298 297 300 298 294 299 309 314 324 338 349 349 345 31 42 307 295 352 10 112 122 150 171 179 181 184 183 164 194 205 181 175 161 187 179 166 229 179 244 262 166 278 215 211 259 272 268 270 277 278 273 243 235 195 167 282 286 256 181 166 243 290 134 118 114 125 135 145 156 155 156 158 160
335 332 332 329 326 326 327 327 326 324 325 321 315 310 304 300 295 295 294 293 297 294 311 329 334 355 351 340 60 66 323 342 6 39 127 137 145 160 176 184 180 178 170 192 197 180 173 178 192 164 159 211 193 240 211 152 205 201 211 260 261 274 282 270 277 284 237 223 173 178 226 259 324 331 198 274 208 138 115 119 138 143 155 159 154 160 159 161
330 330 328 326 327 330 330 329 331 330 330 327 325 319 310 304 295 294 295 289 286 289 313 326 345 2 348 27 82 150 312 1 21 55 135 157 157 163 170 177 179 180 177 182 203 201 182 166 151 101 146 224 190 245 224 190 218 219 247 294 294 298 288 277 293 303 314 224 164 164 203 316 341 16 223 263 176 139 124 134 146 148 157 154 157 162 159 169
330 329 326 326 331 332 332 336 342 345 344 343 342 335 324 311 300 297 291 285 283 288 306 319 351 359 352 36 170 221 316 350 7 39 157 182 181 181 181 187 187 186 182 179 214 215 205 182 125 95 246 222 201 303 229 216 253 285 54 311 309 347 359 339 329 317 348 286 143 146 26 329 304 251 275 281 142 123 123 138 145 148 152 152 165 167 164 173
330 329 328 329 331 334 341 347 355 358 356 355 350 347 341 326 311 298 278 269 268 280 300 329 342 351 19 316 233 250 323 310 317 322 219 216 215 208 211 214 213 210 207 214 233 227 222 214 174 188 223 157 265 274 86 16 354 315 33 69 319 3 6 341 345 340 348 124 39 114 250 290 269 265 283 285 123 116 120 140 147 147 151 161 176 175 172 177
330 330 330 330 332 337 346 354 2 3 358 354 349 345 339 330 312 282 265 250 227 252 283 346 349 6 56 266 264 338 304 283 283 271 242 223 221 232 241 229 227 228 230 243 255 271 245 218 180 187 227 178 251 286 5 5 13 331 349 53 7 39 303 313 325 349 340 341 43 75 227 266 272 276 265 215 138 138 141 153 152 150 162 172 183 180 181 190
335 335 332 330 331 338 345 352 359 1 353 346 345 340 327 321 299 262 243 234 224 232 264 21 355 10 12 288 281 313 299 288 275 268 254 231 221 228 239 226 232 234 237 249 251 246 214 173 145 90 249 240 30 18 349 349 8 16 22 322 351 63 297 312 340 20 330 301 31 83 228 275 274 272 253 195 148 151 152 161 161 163 173 178 188 185 183 192
337 335 334 331 332 338 342 346 352 352 346 342 343 337 319 309 285 249 224 211 189 165 95 51 9 77 73 301 323 336 312 291 296 288 250 236 229 210 195 221 239 236 238 252 254 245 228 145 117 70 223 17 53 74 33 13 353 356 61 194 314 35 356 326 355 1 328 284 348 83 206 274 302 303 299 328 147 155 155 169 172 169 178 182 187 188 181 180
337 334 333 331 332 336 339 344 345 344 344 342 343 342 331 317 266 237 209 161 148 155 125 86 350 28 270 284 321 338 321 307 311 295 238 234 236 221 213 24 37 331 248 254 255 236 220 145 56 351 49 40 66 87 46 4 335 322 27 70 281 326 42 332 328 338 12 345 289 8 221 254 293 323 329 345 111 153 167 184 184 175 181 187 184 185 185 184
336 332 330 330 331 334 339 342 339 341 345 345 349 360 23 65 109 97 130 130 132 147 111 288 341 27 284 297 319 304 307 309 309 289 229 226 233 229 236 24 16 2 7 10 36 84 3 2 46 33 14 9 35 78 111 223 186 219 243 95 345 321 184 294 281 300 18 23 273 338 283 265 296 319 318 331 41 173 201 188 172 179 179 188 193 194 192 192
333 330 330 330 332 334 337 336 333 336 344 350 355 32 95 81 86 68 92 107 95 305 287 251 215 71 250 269 290 306 311 309 302 270 219 210 215 216 221 50 28 17 32 24 345 9 38 23 37 47 333 308 256 135 174 206 169 167 181 138 135 70 261 264 259 273 3 59 30 312 258 274 304 301 286 308 5 195 227 182 146 177 182 190 200 203 205 206
332 330 330 331 333 335 332 328 330 335 345 351 356 103 90 30 32 358 331 162 207 225 249 226 193 257 281 268 298 323 322 318 310 224 207 195 170 137 61 14 33 35 43 254 295 351 67 60 340 213 228 240 229 199 178 177 135 129 119 119 152 160 288 278 265 292 335 97 341 238 244 277 276 265 250 256 339 298 251 223 187 193 191 198 201 205 211 215
336 331 329 336 336 332 326 323 330 338 344 350 8 104 111 70 37 324 302 285 239 220 236 235 203 242 270 269 292 344 355 346 337 312 194 178 146 122 341 13 60 12 318 222 255 356 53 59 249 224 220 221 203 175 140 112 87 95 125 125 143 189 248 268 249 311 344 116 267 329 344 289 267 271 259 187 177 239 229 215 207 204 199 200 203 209 211 214
338 332 335 343 336 329 323 323 334 341 347 357 23 108 161 163 322 278 258 315 282 225 221 245 246 262 267 268 264 260 69 3 320 311 171 145 119 164 240 58 103 219 301 4 343 356 19 284 254 240 203 145 103 120 114 103 92 81 120 128 280 257 275 291 297 332 357 76 276 343 2 289 277 284 281 243 199 218 223 213 205 199 195 199 201 203 205 207
337 337 346 349 342 335 328 330 341 351 0 6 28 88 29 358 343 296 189 304 296 265 205 214 215 246 272 275 229 164 109 175 285 298 178 143 111 179 140 86 119 169 359 61 143 29 335 254 244 213 148 127 79 89 104 99 88 89 117 137 259 284 332 291 302 327 349 53 290 23 10 295 299 312 295 284 246 229 238 238 235 207 197 202 202 195 193 198
339 345 355 360 0 353 339 340 354 8 2 8 49 24 6 357 353 342 175 346 305 293 238 200 193 206 244 273 172 148 133 188 194 278 182 143 117 145 146 141 124 117 261 165 143 170 251 242 183 118 131 144 119 93 115 134 264 306 162 157 186 235 201 217 279 328 349 13 33 47 9 312 325 337 301 301 320 315 290 267 273 252 231 226 211 200 199 197
342 351 8 20 28 12 352 351 32 13 359 102 40 356 354 348 344 349 107 42 329 296 280 210 222 218 214 139 161 169 112 208 214 235 177 149 141 132 174 173 120 219 230 157 127 190 261 260 146 119 109 125 137 183 178 157 177 309 246 197 183 178 188 213 331 22 28 348 346 30 352 292 322 324 279 304 345 325 333 340 253 232 243 246 220 210 209 206
345 355 27 36 57 31 7 30 28 0 353 114 351 342 342 339 337 356 115 46 5 296 314 263 292 253 228 129 173 167 57 303 249 215 162 168 158 117 116 251 41 252 194 149 133 205 260 311 67 118 123 101 131 239 233 163 129 305 248 193 156 131 132 146 108 78 78 271 309 42 158 258 319 318 281 323 345 314 314 312 277 237 217 226 230 221 209 208
345 354 31 38 65 35 12 30 349 349 46 333 334 336 336 335 335 156 93 38 1 283 320 295 343 60 280 195 162 112 90 279 280 77 147 178 170 67 104 242 7 218 172 117 354 257 229 325 29 74 93 91 128 246 233 153 121 236 226 143 127 127 148 157 135 127 196 249 322 15 110 202 304 280 282 342 347 317 315 303 296 289 235 219 236 240 225 217
347 348 12 27 20 358 339 331 329 334 133 321 328 333 332 333 352 131 77 65 282 280 90 280 279 313 312 283 112 112 213 278 48 314 303 141 153 55 73 226 184 195 171 114 248 271 226 267 308 78 80 94 200 215 194 153 143 241 190 127 128 137 146 139 120 121 19 14 311 323 36 137 279 274 304 357 347 310 307 293 295 306 305 280 251 241 232 227
349 337 348 356 341 334 323 316 305 263 307 325 333 329 325 336 116 75 69 112 272 292 211 293 310 298 334 24 19 12 328 359 94 274 334 90 117 63 116 209 153 154 11 110 211 256 244 236 230 135 109 217 228 212 177 160 186 218 136 98 73 74 77 82 100 110 47 46 250 272 300 161 270 285 309 357 359 296 289 289 290 300 310 304 282 263 242 228
345 325 329 331 322 325 325 314 299 296 322 330 329 324 330 83 79 58 64 194 277 296 276 342 321 314 19 45 338 343 331 293 322 320 2 74 349 32 115 185 101 114 338 25 235 253 289 278 196 147 179 201 179 138 157 141 126 127 100 68 52 42 38 48 59 85 68 353 254 253 229 128 272 283 276 293 327 281 282 300 307 309 310 294 281 277 259 237
339 325 314 316 313 315 322 322 336 340 332 331 328 331 57 74 55 87 136 246 255 316 358 350 303 8 39 90 313 340 344 313 336 359 354 339 353 19 74 323 45 62 4 356 318 303 334 333 233 256 232 153 104 70 43 55 80 95 76 71 70 4 15 31 357 46 91 264 266 269 94 105 234 270 283 288 289 290 281 289 303 311 310 294 284 289 275 248
332 326 307 308 306 299 297 309 330 336 328 328 335 12 93 23 17 120 262 309 300 294 5 299 296 21 14 20 20 339 335 341 346 30 56 329 335 290 197 192 194 12 337 302 320 338 321 257 265 305 287 141 108 72 15 15 43 77 81 81 86 343 13 12 303 339 196 243 274 321 60 122 242 243 277 303 310 322 313 288 297 304 303 305 322 333 314 281
318 326 320 308 301 298 300 307 316 320 318 326 348 57 79 73 191 209 277 338 258 258 236 278 330 33 28 35 16 331 353 12 342 13 309 333 330 279 290 164 151 114 284 234 329 355 317 301 323 327 293 151 127 139 190 303 77 128 142 127 125 109 68 296 266 278 262 264 303 319 310 283 274 266 297 309 310 320 330 318 307 299 294 311 1 18 7 357
305 307 304 299 302 299 297 297 293 298 314 338 40 76 69 109 211 204 261 267 256 313 351 12 355 21 46 51 345 340 29 1 340 14 353 10 19 320 335 3 49 103 115 170 227 148 278 306 294 196 270 320 164 179 167 150 143 171 160 134 144 158 152 220 222 194 238 262 321 309 243 191 210 294 305 300 303 317 337 320 308 307 297 321 31 36 27 19
293 273 280 287 301 303 288 273 280 293 319 21 66 76 119 208 242 172 223 257 265 330 330 18 51 49 25 353 332 2 57 296 347 28 18 22 39 281 338 335 332 98 117 153 243 178 156 259 262 259 281 270 213 205 135 115 108 218 136 111 160 186 151 168 189 169 181 170 261 261 228 216 209 289 305 318 330 332 333 323 343 353 334 4 36 30 24 25
293 278 274 273 292 308 282 257 272 296 354 69 66 69 178 210 219 162 201 268 103 186 335 2 49 68 357 326 333 346 12 333 359 26 9 357 221 247 234 287 311 114 136 170 214 178 132 269 282 306 325 358 298 210 126 135 182 176 127 161 210 171 122 117 189 55 74 143 252 247 230 291 335 333 325 351 355 349 352 357 13 6 1 24 31 20 18 20
318 298 289 296 325 331 297 273 269 295 41 80 86 175 221 207 179 177 226 316 333 105 79 29 10 71 337 323 305 311 347 18 4 16 338 329 345 323 331 303 288 128 161 190 220 201 165 272 295 318 41 328 345 68 48 44 124 126 177 204 185 103 95 108 147 14 45 195 270 300 196 260 68 187 315 358 12 3 354 356 10 10 18 31 23 13 15 10
328 311 27 19 357 311 324 304 258 319 66 73 73 246 228 162 195 203 325 324 5 74 82 125 301 113 174 194 276 284 343 9 351 10 331 322 25 1 5 326 297 358 35 147 178 287 136 270 294 292 190 308 347 54 21 354 58 126 181 182 112 114 169 86 134 148 121 213 282 319 265 236 202 213 221 100 11 347 341 347 15 17 18 26 21 17 15 11
344 6 61 13 351 282 279 266 211 71 65 78 90 246 218 238 270 289 328 321 93 83 92 206 231 40 171 174 226 272 343 48 123 34 333 279 64 33 30 338 298 343 2 122 136 305 79 126 283 294 267 293 347 44 239 300 351 35 48 28 38 128 162 158 137 161 171 189 246 310 315 268 233 221 160 151 222 307 346 357 6 1 358 7 16 20 19 20
10 46 234 357 0 276 230 234 87 60 63 152 185 210 254 279 287 305 324 1 81 106 153 200 179 21 244 209 207 258 5 138 153 117 245 226 115 21 15 2 315 328 341 45 93 38 48 100 247 295 330 295 282 313 197 189 176 23 27 1 349 82 126 167 75 116 136 151 177 205 292 272 253 221 165 167 208 245 4 11 356 346 352 356 1 12 16 20
26 41 247 349 359 296 196 57 45 62 93 147 171 230 298 358 306 312 323 11 58 209 153 152 164 171 191 202 219 218 110 80 149 147 226 254 148 49 5 3 283 298 348 24 36 29 39 120 193 289 334 289 235 248 210 187 180 167 182 195 166 134 132 155 302 320 100 141 169 160 218 264 259 213 202 205 210 263 356 30 12 353 353 353 354 1 2 11
53 32 269 351 353 329 105 64 4 59 112 157 163 246 300 19 29 315 323 358 24 18 55 109 153 164 172 189 207 181 141 132 203 168 201 188 110 130 327 326 278 249 66 27 320 267 134 107 136 270 269 237 248 259 158 192 160 133 152 156 134 135 125 139 207 244 149 140 154 132 171 264 264 228 232 259 266 313 5 62 64 17 358 351 347 347 355 8
85 276 297 357 352 349 92 42 304 21 38 242 290 256 252 34 49 328 337 354 7 15 17 27 160 166 194 196 169 161 161 201 185 176 202 157 127 201 306 336 330 14 66 21 309 304 82 77 17 291 296 300 304 339 43 42 75 91 28 53 109 143 135 149 177 170 159 177 144 119 234 262 270 270 289 289 272 124 76 73 70 30 0 350 344 344 354 2
9 253 281 1 3 55 120 177 223 90 300 311 356 334 307 270 172 24 342 318 330 62 52 6 177 149 106 82 93 131 182 214 182 350 124 131 188 249 341 360 10 48 47 327 273 282 292 292 96 15 337 328 334 351 352 349 38 108 295 333 84 103 98 112 116 84 128 214 157 156 233 247 267 317 338 318 319 101 109 113 109 64 353 328 324 333 341 352
351 273 263 354 16 54 122 174 150 150 287 8 6 328 339 327 276 56 167 283 338 119 130 321 318 87 59 58 54 38 41 77 295 349 37 34 290 296 359 3 13 42 17 355 16 215 217 195 141 143 226 240 253 267 263 275 330 81 295 291 294 102 104 113 75 88 215 246 166 169 223 254 279 304 317 322 342 94 125 117 119 122 344 305 310 325 336 355
29 13 299 334 13 45 77 90 93 112 132 85 22 311 14 328 304 323 122 113 5 66 90 356 345 44 40 53 59 21 7 16 20 52 54 333 284 284 335 348 3 7 10 25 29 77 130 295 199 175 196 207 209 229 226 169 179 213 215 235 236 120 114 107 98 142 194 198 207 211 198 220 266 268 283 299 290 207 182 94 85 116 7 323 322 330 338 351
69 55 11 341 343 17 27 8 34 50 230 144 117 336 1 331 314 328 28 68 33 55 68 26 17 50 78 86 99 132 322 355 12 76 106 292 271 290 313 329 6 356 10 23 12 64 89 334 260 180 216 226 215 240 269 29 235 210 179 207 235 209 121 126 169 205 165 142 254 239 192 196 244 240 244 258 256 240 239 257 268 268 270 292 328 331 334 335
52 96 90 56 309 358 23 343 359 28 11 72 115 31 19 14 355 326 330 357 25 38 56 18 7 14 150 142 134 150 325 356 350 346 153 320 298 321 340 357 350 352 22 26 357 75 111 267 246 176 259 266 250 257 267 7 267 241 182 205 222 202 171 181 205 197 156 183 243 226 187 211 236 227 228 233 220 212 227 238 255 280 280 352 1 336 329 324
40 58 322 3 71 182 258 316 343 54 35 24 32 36 51 29 355 298 291 346 0 360 58 102 312 323 7 96 126 130 202 197 309 293 202 203 318 331 353 332 286 345 37 42 351 90 127 254 228 184 281 294 282 275 247 199 252 278 247 227 217 207 204 206 218 203 182 217 243 210 197 225 231 215 223 228 207 201 231 267 295 315 318 336 331 311 317 319
47 34 320 11 37 351 327 351 33 73 26 12 29 27 44 41 353 317 308 29 7 333 29 91 253 286 8 69 107 125 230 184 161 268 182 148 327 261 264 268 252 335 14 41 327 352 96 257 239 179 285 282 275 284 264 219 214 242 252 242 216 234 238 237 249 227 201 243 255 223 220 247 249 219 215 225 218 191 261 278 279 279 275 269 266 280 304 313
358 256 330 64 20 347 347 357 41 79 29 8 29 348 351 3 348 321 307 32 90 51 345 335 220 226 29 49 74 335 285 187 175 212 181 162 220 213 211 220 192 306 346 4 236 347 106 240 323 38 277 261 223 244 263 262 252 252 249 229 214 227 226 218 219 196 189 226 245 230 239 254 245 213 196 199 201 213 242 251 248 245 233 212 221 252 274 291
359 307 16 75 106 352 2 356 28 74 93 343 321 313 335 320 321 338 190 25 65 61 346 304 160 134 49 35 34 329 303 244 213 219 192 182 235 233 230 232 179 185 270 205 250 298 156 197 212 148 246 263 183 218 256 305 301 269 241 207 213 221 220 223 230 214 200 202 209 221 239 241 204 171 174 192 210 230 244 243 229 228 224 212 221 237 251 266